Showing default

YAOGAN-43 02B, 60946

Orbit data source: Space-Track

YAOGAN-43 02B, 60946 is a payload satellite owned by PLA GAD (CN) in LEO that was launched on Tue, 03 Sep 2024 UTC via a CHANG ZHENG 4B launch vehicle from the Xichang Space Center, China (XSC). Payload-class satellites include a variety of spacecraft equipped with specific instruments for various scientific and technological missions. These include communications satellites like Starlink; space stations such as the ISS; scientific satellites like the Hubble; Earth observation satellites from companies like Planet Labs, Umbra, and HawkEye 360; GPS; miniature CubeSats for education and research; and military/defense satellites.

Loading next visibility...
Identifier
60946, 2024-156B
Orbit
LEO
Country
Flag of CNCN / PRC
Related business
Manufacturer
SAST
Mission
Operational Defense Communications
Bus & Motor
Unknown
Mass
~300 kg wet, ~300 kg dry
Launch date (UTC)
2024-09-03 (1 year ago)
Launch vehicle
CHANG ZHENG 4B
Launch site
Xichang Space Center, China (XSC)
Object type
Payload
Rocket body
Debris
Shape & HBR
Box + 2 Pan, 2.5 m
Radar Cross Section
11.063 m², Large (>1 m²)

Expand to show TLE details & history
Last TLE update: 7 hours ago

TLE from 7 hours ago
0 YAOGAN-43 02B
1 60946U 24156B   25297.98400627  .00019156  00000-0  78761-3 0  9998
2 60946  34.9946 237.2790 0007708 189.1242 170.9334 15.23274262 63562
Epoch: 2025-10-24T23:36Z
TLE epoch observation values (Epoch: 2025-10-24T23:36:58.141Z)
Latitude
0.00001°
Longitude
-150.58432°
Altitude
500.11 km
Speed
7.614 km/s
True Right ascension
15h 49m 06s
True Declination
0° 00' 00"
Sunlit
Object was in daylight at epoch
Visualization orbit readout
Latitude
Unknown
Longitude
Unknown
Altitude
Unknown
Speed
Unknown
Apparent Right ascension
Unknown
Apparent Declination
Unknown
Sunlit
N/A
Visualization observer readout
Local Sidereal Time
02:06:59
Azimuth
Unknown
Elevation
Unknown
Doppler factor
Unknown
Orbital elements
Apogee altitude
504.525 km
Perigee altitude
493.923 km
Semi-major axis
6,877.361 km
Eccentricity
0.00077
Inclination
34.9946°
RAAN
237.279°
Arg. of periapsis
189.1242°
True anomaly
170.94731°
Mean anomaly
170.9334°
Eccentric anomaly
170.94035°
Mean motion
3.80549 °/min
Orbital period
94.6 mins
BSTAR
0.00078761
Loading maneuver chart data...
Computing Atmospheric mass density...
Loading historical data...
Loading historical data...
Loading historical data...
Loading historical data...
Loading historical data...
Loading historical data...
Loading historical data...

Documentation

Showing up to 5 results
|